PBO Station Position Time Series. Reference Frame : NAM14
Format Version,1.1.1
4-character ID,TNMQ
Station name,tnmq_TNET_MX2015
Begin Date, 2015-11-26
End Date, 2023-05-25
Release Date, 2023-06-22
Reference position, 16.7102811765 North Latitude, -98.6116299547 East Longitude, 407.21109 meters elevation,
Date, North (mm), East (mm), Vertical (mm), North Std. Deviation (mm), East Std. Deviation (mm),              Vertical Std. Deviation (mm), Quality,
2015-11-26,0.00, 0.00, 0.00, 1.64, 1.96, 7.57, repro,
2015-11-27,0.03, -0.74, -4.46, 1.62, 1.91, 7.41, repro,
2015-11-28,-0.17, -0.42, -6.26, 1.58, 1.87, 7.27, repro,
2015-11-29,0.16, -0.82, -0.33, 1.58, 1.88, 7.27, repro,
2015-11-30,-0.90, -0.15, -1.45, 1.58, 1.87, 7.22, repro,
2015-12-01,-0.50, -0.79, -10.68, 1.58, 1.86, 7.25, repro,
2015-12-02,-2.18, -1.67, -12.33, 1.68, 2.07, 8.00, repro,
2015-12-03,-1.29, -3.38, -5.30, 1.58, 1.90, 7.36, repro,
2015-12-04,-0.75, -2.66, -4.90, 1.59, 1.88, 7.34, repro,
2015-12-05,-0.47, -3.33, -7.38, 1.57, 1.87, 7.25, repro,
2015-12-06,-0.06, -3.93, -8.96, 1.58, 1.88, 7.32, repro,
2015-12-07,-0.32, -2.53, -3.74, 1.61, 1.88, 7.36, repro,
2015-12-08,-1.70, -3.58, -8.25, 1.60, 1.89, 7.33, repro,
2015-12-09,-0.61, -2.01, -6.02, 1.59, 1.87, 7.36, repro,
2015-12-10,0.43, -2.05, -4.84, 1.60, 1.90, 7.40, repro,
2015-12-11,1.47, -3.95, -7.98, 1.62, 1.95, 7.56, repro,
2015-12-12,-0.33, -3.44, -5.56, 1.58, 1.85, 7.33, repro,
2015-12-13,-1.09, -3.67, -1.84, 1.59, 1.86, 7.36, repro,
2015-12-14,-1.03, -4.21, 1.57, 1.56, 1.83, 7.27, repro,
2015-12-15,-0.81, -2.21, -0.13, 1.56, 1.85, 7.27, repro,
2015-12-16,-0.53, -3.37, -4.84, 1.58, 1.87, 7.38, repro,
2015-12-17,0.03, -4.22, -7.85, 1.63, 1.93, 7.73, repro,
2015-12-18,-0.44, -3.38, -8.02, 1.59, 1.88, 7.40, repro,
2015-12-19,0.42, -2.83, -10.22, 1.55, 1.82, 7.22, repro,
2015-12-20,-0.16, -2.71, -5.68, 1.58, 1.84, 7.28, repro,
2015-12-21,0.67, -2.34, -10.25, 1.70, 2.00, 7.93, repro,
2015-12-22,0.58, -3.89, -0.55, 1.55, 1.82, 7.16, repro,
2015-12-23,0.57, -4.33, -2.35, 1.60, 1.92, 7.49, repro,
2015-12-24,-0.33, -4.74, 2.40, 1.55, 1.82, 7.15, repro,
2015-12-25,-0.50, -4.86, 4.27, 1.56, 1.82, 7.18, repro,
2015-12-26,-0.45, -4.76, -1.23, 1.55, 1.83, 7.17, repro,
2015-12-27,-1.16, -6.61, -3.81, 1.55, 1.82, 7.15, repro,
2015-12-28,-1.31, -4.59, -2.37, 1.55, 1.81, 7.14, repro,
2015-12-29,-0.43, -5.54, -7.01, 1.56, 1.83, 7.21, repro,
2015-12-30,-0.35, -4.87, -2.32, 1.55, 1.82, 7.15, repro,
2015-12-31,0.45, -3.40, -2.58, 1.56, 1.83, 7.20, repro,
2016-01-01,-0.21, -3.99, 3.94, 1.69, 1.90, 7.58, repro,
2016-01-02,-1.23, -3.43, -6.04, 1.58, 1.90, 7.38, repro,
2016-01-03,-1.67, -3.55, -9.08, 1.56, 1.89, 7.31, repro,
2016-01-04,-0.84, -6.45, -12.17, 1.71, 2.11, 8.09, repro,
2016-01-05,-0.31, -3.88, 2.03, 1.67, 1.99, 7.79, repro,
2016-01-06,-0.81, -6.17, -5.67, 1.55, 1.81, 7.14, repro,
2016-01-07,-0.72, -6.52, -0.18, 1.59, 1.91, 7.44, repro,
2016-01-08,-0.96, -7.64, -2.67, 1.61, 1.87, 7.43, repro,
2016-01-09,-0.08, -4.55, 2.47, 1.64, 1.86, 7.64, repro,
2016-01-10,-0.98, -5.74, 7.51, 1.55, 1.83, 7.20, repro,
2016-01-11,-1.01, -6.17, -2.74, 1.60, 1.91, 7.55, repro,
2016-01-12,-0.98, -7.02, -1.33, 1.55, 1.82, 7.18, repro,
2016-01-13,0.11, -9.21, 1.21, 1.56, 1.82, 7.18, repro,
2016-01-14,-1.13, -7.65, 1.02, 1.55, 1.83, 7.18, repro,
2016-01-15,-0.71, -8.75, 3.27, 1.59, 1.90, 7.33, repro,
2016-01-16,-2.58, -6.55, 2.14, 1.56, 1.87, 7.39, repro,
2016-01-17,-2.06, -8.21, 2.97, 1.55, 1.83, 7.16, repro,
2016-01-18,-2.35, -7.72, -1.38, 1.59, 1.85, 7.44, repro,
2016-01-19,-2.36, -7.11, 7.65, 1.80, 2.27, 8.53, repro,
2016-01-20,-3.27, -6.30, 1.06, 1.73, 2.26, 8.43, repro,
2016-01-21,-1.34, -7.68, -7.03, 1.56, 1.83, 7.22, repro,
2016-01-22,-0.81, -6.59, -2.00, 1.57, 1.88, 7.36, repro,
2016-01-23,-2.10, -8.82, 1.10, 1.56, 1.84, 7.21, repro,
2016-01-24,-2.65, -8.61, -1.19, 1.55, 1.82, 7.14, repro,
2016-01-25,-2.00, -6.83, 6.15, 1.63, 1.97, 7.59, repro,
2016-01-26,-1.31, -8.48, 2.09, 1.59, 1.84, 7.29, repro,
2016-01-27,-3.20, -7.66, -11.53, 1.62, 1.90, 7.42, repro,
2016-01-28,-1.18, -7.24, -5.45, 1.65, 1.87, 7.50, repro,
2016-01-29,-1.33, -8.49, 2.96, 1.62, 1.85, 7.36, repro,
2016-01-30,-0.28, -7.80, 9.52, 1.60, 1.93, 7.53, repro,
2016-01-31,-0.91, -6.97, 0.64, 1.62, 1.85, 7.49, repro,
2016-02-01,-0.96, -6.07, 2.35, 1.60, 1.83, 7.30, repro,
2016-02-02,-1.56, -7.59, 3.33, 1.61, 1.87, 7.36, repro,
2016-02-03,-1.35, -8.66, -9.55, 1.59, 1.83, 7.29, repro,
2016-02-04,-1.51, -7.34, -1.08, 1.58, 1.82, 7.21, repro,
2016-02-05,-2.59, -6.34, -3.44, 1.58, 1.82, 7.25, repro,
2016-02-06,-1.07, -7.80, -8.62, 1.59, 1.83, 7.28, repro,
2016-02-07,-1.16, -7.78, -0.32, 1.60, 1.84, 7.32, repro,
2016-02-08,-1.46, -5.58, -3.59, 1.59, 1.82, 7.26, repro,
2016-02-09,-0.91, -6.41, 8.29, 1.59, 1.82, 7.27, repro,
2016-02-10,-2.26, -8.24, -1.84, 1.59, 1.82, 7.26, repro,
2016-02-11,-3.41, -6.52, 2.18, 1.59, 1.80, 7.23, repro,
2016-02-12,-2.66, -7.70, 0.80, 1.59, 1.80, 7.25, repro,
2016-02-13,-2.52, -9.45, -0.24, 1.61, 1.87, 7.35, repro,
2016-02-14,-2.17, -9.95, 1.48, 1.61, 1.82, 7.27, repro,
2016-02-15,-2.12, -10.75, 0.88, 1.60, 1.85, 7.38, repro,
2016-02-16,-1.85, -8.05, 7.88, 1.60, 1.85, 7.41, repro,
2016-02-17,-3.85, -10.18, 0.28, 1.63, 1.89, 7.45, repro,
2016-02-18,-3.42, -9.33, 1.27, 1.67, 2.02, 7.84, repro,
2016-02-19,-2.17, -9.88, -0.19, 1.57, 1.82, 7.22, repro,
2016-02-20,-1.39, -7.68, 10.64, 1.59, 1.89, 7.39, repro,
2016-02-21,-3.62, -9.71, 0.88, 1.59, 1.81, 7.22, repro,
2016-02-22,-4.10, -10.26, -1.22, 1.57, 1.79, 7.17, repro,
2016-02-23,-2.34, -9.70, 5.43, 1.57, 1.81, 7.22, repro,
2016-02-24,-3.10, -9.27, -2.61, 1.58, 1.82, 7.23, repro,
2016-02-25,-2.67, -8.48, 4.79, 1.59, 1.88, 7.39, repro,
2016-02-26,-2.46, -7.77, -0.90, 1.60, 1.87, 7.35, repro,
2016-02-27,-1.97, -8.66, 0.36, 1.57, 1.79, 7.18, repro,
2016-02-28,-2.51, -7.68, 0.03, 1.66, 1.92, 7.77, repro,
2016-02-29,-3.54, -10.60, -7.07, 1.60, 1.90, 7.45, repro,
2016-03-01,-1.90, -8.02, -0.62, 1.58, 1.83, 7.30, repro,
2016-03-02,-2.99, -8.89, 1.35, 1.57, 1.82, 7.25, repro,
2016-03-03,-3.18, -8.42, 0.81, 1.59, 1.80, 7.19, repro,
2016-03-04,-2.34, -10.56, -0.60, 1.61, 1.82, 7.30, repro,
2016-03-05,-1.37, -8.60, 0.37, 1.58, 1.82, 7.25, repro,
2016-03-06,-2.71, -10.86, -2.96, 1.66, 1.85, 7.51, repro,
2016-03-07,-3.31, -9.08, 3.14, 1.65, 1.91, 7.65, repro,
2016-03-08,-3.10, -9.60, -2.42, 1.65, 2.03, 7.78, repro,
2016-03-09,-1.70, -10.43, 2.70, 2.16, 2.72, 10.75, repro,
2016-03-10,0.41, -8.66, -14.70, 1.63, 1.95, 7.71, repro,
2016-03-11,-2.18, -10.32, -2.09, 1.55, 1.76, 7.17, repro,
2016-03-12,-0.68, -11.03, -2.20, 1.54, 1.76, 7.17, repro,
2016-03-13,-2.30, -10.26, 1.77, 1.55, 1.77, 7.20, repro,
2016-03-14,-1.19, -9.61, -0.14, 1.58, 1.80, 7.26, repro,
2016-03-15,-1.84, -9.98, 1.69, 1.61, 1.81, 7.45, repro,
2016-03-16,-2.28, -7.79, -0.90, 1.63, 1.82, 7.37, repro,
2016-03-17,-4.00, -9.94, -0.42, 1.60, 1.83, 7.44, repro,
2016-03-18,-2.19, -7.50, -1.63, 1.61, 1.85, 7.47, repro,
2016-03-19,-2.56, -9.36, -3.85, 1.59, 1.80, 7.41, repro,
2016-03-20,-2.71, -10.16, -0.44, 1.54, 1.73, 7.13, repro,
2016-03-21,-1.41, -8.82, -7.81, 1.55, 1.77, 7.20, repro,
2016-03-22,-1.78, -9.63, -0.22, 1.54, 1.76, 7.19, repro,
2016-03-23,-1.38, -10.21, -1.60, 1.54, 1.76, 7.17, repro,
2016-03-24,-1.24, -9.81, -1.07, 1.54, 1.76, 7.16, repro,
2016-03-25,-1.05, -9.52, 0.17, 1.56, 1.81, 7.34, repro,
2016-03-26,-1.05, -7.97, 0.69, 1.55, 1.74, 7.21, repro,
2016-03-27,-0.72, -7.89, 3.74, 1.55, 1.75, 7.21, repro,
2016-03-28,-1.48, -10.43, -0.48, 1.55, 1.76, 7.22, repro,
2016-03-29,-1.23, -8.25, 2.31, 1.58, 1.83, 7.36, repro,
2016-03-30,-0.14, -10.18, -1.42, 1.56, 1.76, 7.20, repro,
2016-03-31,-1.27, -10.49, -2.23, 1.55, 1.75, 7.24, repro,
2016-04-01,-2.08, -8.70, -0.45, 1.55, 1.77, 7.27, repro,
2016-04-02,-0.84, -7.18, 2.61, 1.55, 1.76, 7.20, repro,
2016-04-03,-0.90, -9.05, -0.66, 1.55, 1.74, 7.19, repro,
2016-04-04,-0.59, -6.74, 4.40, 1.56, 1.76, 7.30, repro,
2016-04-05,-1.90, -8.62, 4.74, 1.56, 1.75, 7.25, repro,
2016-04-06,-2.29, -7.42, -1.47, 1.56, 1.75, 7.30, repro,
2016-04-07,-1.48, -7.54, 9.93, 1.56, 1.75, 7.27, repro,
2016-04-08,-1.90, -6.81, 3.74, 1.55, 1.75, 7.29, repro,
2016-04-09,0.49, -7.11, 6.01, 1.55, 1.75, 7.28, repro,
2016-04-10,-0.73, -8.39, 5.64, 1.61, 1.78, 7.69, repro,
2016-04-11,0.37, -7.35, 10.99, 1.59, 1.80, 7.46, repro,
2016-04-12,-2.62, -9.25, 4.58, 1.55, 1.75, 7.27, repro,
2016-04-13,-1.00, -7.52, 7.67, 1.67, 1.88, 7.93, repro,
2016-04-14,-1.39, -7.29, 1.12, 1.56, 1.74, 7.28, repro,
2016-04-15,-1.56, -6.42, 12.65, 1.65, 1.80, 7.65, repro,
2016-04-16,-1.49, -6.35, 1.42, 1.55, 1.75, 7.26, repro,
2016-04-17,-1.76, -6.65, 3.05, 1.55, 1.75, 7.27, repro,
2016-04-18,-0.93, -6.43, 5.21, 1.56, 1.74, 7.35, repro,
2016-04-19,-2.14, -5.32, 6.48, 1.58, 1.76, 7.37, repro,
2016-04-20,-2.10, -7.42, 2.50, 1.58, 1.76, 7.35, repro,
2016-04-21,-2.94, -7.69, -0.60, 1.85, 2.21, 8.71, repro,
2016-04-22,-2.64, -7.92, 8.05, 1.56, 1.76, 7.33, repro,
2016-04-23,-1.28, -7.69, 7.25, 1.56, 1.74, 7.32, repro,
2016-04-24,-0.97, -7.55, 4.43, 1.55, 1.74, 7.31, repro,
2016-04-25,-1.82, -8.81, 7.65, 1.55, 1.74, 7.29, repro,
2016-04-26,-0.98, -7.95, 5.19, 1.55, 1.74, 7.25, repro,
2016-04-27,-1.87, -8.60, 8.45, 1.58, 1.82, 7.48, repro,
2016-04-28,-3.27, -8.36, 1.48, 1.57, 1.77, 7.42, repro,
2016-04-29,-3.15, -5.96, 7.49, 1.57, 1.76, 7.41, repro,
2016-04-30,-2.67, -7.36, 6.94, 1.55, 1.74, 7.31, repro,
2016-05-01,-2.98, -5.76, 4.35, 1.56, 1.76, 7.32, repro,
2016-05-02,-1.26, -6.41, 8.04, 1.58, 1.78, 7.33, repro,
2016-05-03,-2.64, -8.34, 5.15, 1.59, 1.79, 7.40, repro,
2016-05-04,-2.15, -9.27, 7.76, 1.57, 1.79, 7.39, repro,
2016-05-05,-2.11, -9.06, 3.68, 1.65, 1.89, 7.72, repro,
2016-05-06,-0.07, -6.96, 12.23, 1.63, 1.83, 7.60, repro,
2016-05-07,-3.95, -5.91, 18.28, 1.58, 1.82, 7.42, repro,
2016-05-08,-2.81, -8.63, 9.28, 1.72, 1.90, 7.90, repro,
2016-05-09,-1.14, -8.56, 7.98, 1.56, 1.74, 7.31, repro,
2016-05-10,-1.82, -9.43, 9.57, 1.55, 1.75, 7.30, repro,
2016-05-11,-2.88, -8.51, 14.23, 1.55, 1.75, 7.29, repro,
2016-05-12,-2.85, -9.80, 4.73, 1.56, 1.74, 7.30, repro,
2016-05-13,-5.06, -6.87, 2.61, 1.59, 1.78, 7.50, repro,
2016-05-14,-4.99, -8.66, 4.49, 1.59, 1.78, 7.52, repro,
2016-05-15,-3.30, -8.56, 3.07, 1.64, 1.81, 7.65, repro,
2016-06-09,-3.00, -4.11, -0.52, 3.08, 3.57, 15.07, repro,
2016-06-10,-2.61, -5.40, -1.63, 1.55, 1.74, 7.31, repro,
2016-06-11,-0.31, -7.59, 0.34, 1.84, 2.21, 8.65, repro,
2016-06-12,-1.81, -6.57, 2.64, 1.62, 1.83, 7.66, repro,
2016-06-13,-0.86, -8.54, -0.09, 1.90, 2.43, 9.44, repro,
2016-06-14,1.42, -7.60, -6.08, 1.63, 1.91, 7.79, repro,
2016-06-15,-0.58, -8.02, -0.60, 1.65, 1.92, 7.80, repro,
2016-06-16,-0.36, -7.05, -0.86, 1.69, 1.93, 8.13, repro,
2016-06-17,0.81, -5.45, 3.49, 1.55, 1.75, 7.29, repro,
2016-06-18,-0.82, -6.42, 11.83, 1.58, 1.81, 7.54, repro,
2016-06-19,-0.41, -5.59, -6.46, 1.62, 1.91, 7.85, repro,
2016-06-20,-1.00, -7.00, -3.71, 1.67, 1.84, 7.81, repro,
2016-06-21,0.93, -6.43, 4.35, 1.56, 1.75, 7.31, repro,
2016-06-22,-0.92, -6.29, -5.06, 1.59, 1.75, 7.55, repro,
2016-06-23,-0.80, -7.67, -6.25, 1.63, 1.88, 7.62, repro,
2016-06-24,0.99, -4.57, -0.89, 1.64, 1.85, 7.78, repro,
2016-06-25,0.40, -6.18, -0.89, 1.56, 1.78, 7.39, repro,
2016-06-26,-1.20, -6.09, 2.31, 1.57, 1.80, 7.40, repro,
2016-06-27,1.88, -7.43, -0.82, 1.58, 1.76, 7.40, repro,
2016-06-28,-0.31, -5.26, -2.43, 1.61, 1.83, 7.74, repro,
2016-06-29,-0.24, -5.82, -5.14, 1.92, 2.07, 9.38, repro,
2016-06-30,-0.24, -7.97, 2.18, 1.55, 1.74, 7.30, repro,
2016-07-01,-0.78, -6.07, -2.90, 1.55, 1.73, 7.23, repro,
2016-07-02,1.06, -8.49, -11.87, 1.70, 1.91, 7.96, repro,
2016-07-03,1.41, -6.91, 4.53, 1.67, 1.87, 8.02, repro,
2016-07-04,1.57, -5.02, -1.50, 1.73, 1.89, 8.06, repro,
2016-07-05,1.52, -7.33, -0.12, 1.55, 1.74, 7.29, repro,
2016-07-06,1.35, -8.29, -5.96, 1.58, 1.75, 7.41, repro,
2016-07-07,1.77, -6.45, 3.83, 1.55, 1.75, 7.29, repro,
2016-07-08,-0.22, -6.89, -8.23, 1.72, 1.90, 8.22, repro,
2016-07-09,0.96, -6.56, -0.74, 1.61, 1.88, 7.66, repro,
2016-07-10,1.67, -6.33, -0.66, 1.83, 2.43, 9.21, repro,
2016-07-11,2.10, -6.85, 0.47, 1.72, 1.92, 8.38, repro,
2016-07-12,0.27, -7.51, -2.02, 1.59, 1.84, 7.54, repro,
2016-07-13,-0.10, -10.22, -0.37, 1.73, 2.07, 8.34, repro,
2016-07-14,0.74, -8.00, -1.92, 1.56, 1.73, 7.28, repro,
2016-07-15,1.06, -6.73, -2.07, 1.55, 1.73, 7.27, repro,
2016-07-16,0.76, -6.85, 3.67, 1.55, 1.74, 7.32, repro,
2016-07-17,0.04, -7.91, -5.21, 1.85, 2.10, 8.88, repro,
2016-07-18,1.02, -8.13, -6.76, 1.54, 1.72, 7.18, repro,
2016-07-19,0.38, -6.78, -14.71, 1.56, 1.74, 7.36, repro,
2016-07-20,-0.35, -7.76, 13.52, 1.69, 1.83, 7.99, repro,
2016-07-21,3.06, -7.03, 2.25, 1.55, 1.72, 7.27, repro,
2016-07-22,0.50, -5.95, 0.80, 1.60, 1.81, 7.53, repro,
2016-07-23,-0.32, -6.34, 1.83, 1.54, 1.72, 7.27, repro,
2016-07-24,1.86, -6.84, 2.08, 1.56, 1.73, 7.31, repro,
2016-07-25,1.46, -4.56, 1.14, 1.62, 1.86, 7.76, repro,
2016-07-26,0.87, -5.71, 2.78, 1.56, 1.79, 7.41, repro,
2016-07-27,0.81, -6.84, 2.14, 1.60, 1.80, 7.70, repro,
2016-07-28,-0.56, -8.59, -1.23, 1.54, 1.74, 7.27, repro,
2016-07-29,1.74, -6.96, 5.80, 1.58, 1.75, 7.45, repro,
2016-07-30,0.81, -4.87, 3.63, 1.55, 1.73, 7.30, repro,
2016-07-31,-1.07, -5.90, 6.66, 1.70, 1.86, 8.18, repro,
2016-08-01,-0.06, -5.08, -3.78, 1.55, 1.73, 7.27, repro,
2016-08-02,0.43, -5.72, -0.48, 1.55, 1.72, 7.29, repro,
2016-08-03,0.69, -5.78, 1.57, 1.55, 1.73, 7.28, repro,
2016-08-04,-1.02, -5.06, 4.29, 1.57, 1.75, 7.43, repro,
2016-08-05,2.52, -3.97, 5.14, 1.57, 1.75, 7.38, repro,
2016-08-06,-2.94, -3.04, -4.17, 1.58, 1.74, 7.40, repro,
2016-08-07,1.45, -7.22, -6.77, 1.58, 1.77, 7.35, repro,
2016-08-08,1.46, -5.28, -7.82, 1.54, 1.71, 7.19, repro,
2016-08-09,0.48, -6.20, -1.41, 1.58, 1.75, 7.65, repro,
2016-08-10,0.99, -7.04, -5.83, 1.54, 1.71, 7.25, repro,
2016-08-11,3.29, -4.76, -6.23, 1.55, 1.70, 7.23, repro,
2016-08-12,1.49, -6.20, -2.92, 1.55, 1.71, 7.25, repro,
2016-08-13,1.23, -5.11, -0.20, 1.85, 2.22, 8.99, repro,
2016-08-14,0.97, -6.47, -6.01, 1.55, 1.72, 7.30, repro,
2016-08-15,3.12, -8.16, 6.05, 1.58, 1.75, 7.48, repro,
2016-08-16,3.47, -5.10, 9.47, 1.60, 1.75, 7.50, repro,
2016-08-17,2.51, -4.59, -3.42, 1.58, 1.72, 7.34, repro,
2016-08-18,2.49, -6.19, -0.72, 1.86, 2.19, 8.72, repro,
2016-08-19,2.64, -6.55, -11.66, 1.63, 1.76, 7.61, repro,
2016-08-20,2.49, -4.97, 0.54, 1.54, 1.71, 7.22, repro,
2016-08-21,2.46, -3.58, -4.94, 1.55, 1.72, 7.29, repro,
2016-08-22,2.95, -6.13, -3.86, 1.78, 2.08, 8.60, repro,
2016-08-23,3.08, -6.69, -3.53, 1.64, 1.91, 7.60, repro,
2016-08-24,4.04, -6.59, 0.76, 1.60, 1.76, 7.44, repro,
2016-08-25,3.86, -6.81, -6.93, 1.59, 1.74, 7.57, repro,
2016-08-26,3.50, -4.65, -9.01, 1.57, 1.73, 7.30, repro,
2016-08-27,2.65, -4.18, -5.82, 1.56, 1.72, 7.32, repro,
2016-08-28,1.89, -7.23, -12.75, 1.57, 1.73, 7.33, repro,
2016-08-29,2.83, -6.75, -7.62, 1.57, 1.75, 7.42, repro,
2016-08-30,3.76, -5.48, -7.49, 1.72, 1.85, 8.32, repro,
2016-08-31,1.38, -6.57, -4.42, 1.55, 1.72, 7.34, repro,
2016-09-01,2.94, -5.64, -4.89, 1.57, 1.75, 7.48, repro,
2016-09-02,4.09, -7.34, -9.14, 1.66, 1.86, 7.81, repro,
2016-09-03,3.76, -7.54, -8.94, 1.62, 1.79, 7.63, repro,
2016-09-04,3.75, -6.61, -13.28, 1.57, 1.71, 7.31, repro,
2016-09-05,2.33, -5.24, -0.89, 1.57, 1.76, 7.45, repro,
2016-09-06,3.89, -4.52, 6.12, 1.62, 1.86, 7.86, repro,
2016-09-07,2.05, -4.33, -0.53, 1.70, 1.84, 8.07, repro,
2016-09-08,1.98, -6.03, -23.91, 1.70, 1.87, 8.22, repro,
2016-09-09,3.13, -5.11, -13.31, 1.62, 1.75, 7.51, repro,
2016-09-10,2.80, -6.69, -16.04, 1.58, 1.77, 7.50, repro,
2016-09-11,2.40, -6.68, -17.50, 1.56, 1.71, 7.29, repro,
2016-09-12,4.55, -4.80, -14.66, 1.56, 1.72, 7.30, repro,
2016-09-13,0.96, -5.30, -14.99, 1.57, 1.72, 7.30, repro,
2016-09-14,3.47, -6.97, -22.74, 1.84, 2.17, 8.89, repro,
2016-09-15,1.25, -4.77, -25.19, 1.74, 1.99, 8.10, repro,
2016-09-16,1.33, -4.82, -5.23, 1.65, 1.88, 7.80, repro,
2016-09-17,4.53, -4.86, -10.76, 1.56, 1.74, 7.36, repro,
2016-09-18,3.10, -5.25, -2.55, 1.56, 1.71, 7.27, repro,
2016-09-19,3.04, -3.95, -5.78, 1.56, 1.72, 7.29, repro,
2016-09-20,2.16, -6.09, -11.68, 1.58, 1.74, 7.37, repro,
2016-09-21,4.82, -7.57, -5.03, 1.62, 1.81, 7.60, repro,
2016-09-22,4.43, -3.85, -12.50, 1.75, 2.12, 8.72, repro,
2016-09-23,3.73, -4.87, -10.89, 1.57, 1.74, 7.54, repro,
2016-09-24,3.62, -4.61, -14.69, 1.55, 1.71, 7.25, repro,
2016-09-25,4.36, -2.78, -7.82, 1.57, 1.72, 7.33, repro,
2016-09-26,1.72, -3.56, -3.40, 1.67, 1.96, 8.16, repro,
2016-09-27,4.11, -4.93, -8.40, 1.58, 1.77, 7.44, repro,
2016-09-28,1.08, -5.23, -10.37, 1.60, 1.81, 7.61, repro,
2016-09-29,2.03, -3.57, -9.83, 1.54, 1.70, 7.22, repro,
2016-09-30,0.85, -5.30, -17.91, 1.61, 1.74, 7.66, repro,
2016-10-01,3.78, -1.65, -3.75, 1.56, 1.69, 7.25, repro,
2016-10-02,3.92, -4.31, 0.38, 1.56, 1.72, 7.31, repro,
2016-10-03,3.54, -4.34, -10.30, 1.62, 1.82, 7.61, repro,
2016-10-04,2.80, -4.49, -6.36, 1.57, 1.72, 7.30, repro,
2016-10-05,3.03, -8.22, 5.15, 1.56, 1.71, 7.30, repro,
2016-10-06,3.80, -3.91, 0.22, 1.73, 1.85, 8.08, repro,
2016-10-07,1.66, -6.41, -1.90, 1.58, 1.74, 7.45, repro,
2016-10-08,-3.54, -5.31, -13.06, 1.61, 1.84, 7.75, repro,
2016-10-09,3.40, -6.12, -4.06, 1.73, 1.87, 8.21, repro,
2016-10-10,2.44, -6.27, -14.16, 1.55, 1.71, 7.20, repro,
2016-10-11,3.08, -6.94, -4.18, 1.57, 1.76, 7.41, repro,
2016-10-12,3.64, -4.14, -6.40, 1.55, 1.69, 7.20, repro,
2016-10-13,2.82, -2.30, -11.71, 1.56, 1.71, 7.27, repro,
2016-10-14,5.95, -8.94, -5.88, 1.62, 1.80, 7.59, repro,
2016-10-15,1.24, -4.74, -10.45, 1.55, 1.71, 7.23, repro,
2016-10-16,3.20, -4.57, -6.51, 1.56, 1.71, 7.27, repro,
2016-10-17,3.14, -5.33, -5.41, 1.56, 1.70, 7.23, repro,
2016-10-18,1.98, -6.08, 0.69, 1.61, 1.83, 7.52, repro,
2016-10-19,1.68, -4.93, -6.56, 1.57, 1.72, 7.36, repro,
2016-10-20,1.68, -4.60, 3.30, 1.58, 1.74, 7.39, repro,
2016-10-21,1.47, -3.91, -1.92, 1.55, 1.72, 7.28, repro,
2016-10-22,2.61, -4.76, -4.96, 1.56, 1.71, 7.25, repro,
2016-10-23,3.55, -6.51, -11.40, 1.60, 1.81, 7.54, repro,
2016-10-24,3.61, -4.46, -11.02, 1.57, 1.71, 7.33, repro,
2016-10-25,1.43, -5.49, -8.37, 1.55, 1.72, 7.32, repro,
2016-10-26,0.09, -6.34, -7.77, 1.56, 1.72, 7.31, repro,
2016-10-27,2.00, -5.30, -4.25, 1.63, 1.78, 7.70, repro,
2016-10-28,3.93, -4.10, -8.65, 1.58, 1.77, 7.44, repro,
2016-10-29,1.89, -4.78, -7.15, 1.57, 1.71, 7.28, repro,
2016-10-30,1.40, -5.76, -5.71, 1.56, 1.70, 7.25, repro,
2016-10-31,3.69, -7.48, -12.67, 1.55, 1.71, 7.25, repro,
2016-11-01,2.13, -4.32, -16.36, 1.55, 1.70, 7.24, repro,
2016-11-02,1.83, -5.98, -4.92, 1.72, 1.82, 7.99, repro,
2016-11-03,0.21, -6.08, -16.18, 1.73, 1.92, 8.43, repro,
2016-11-04,2.63, -4.00, -19.55, 1.82, 1.98, 8.57, repro,
2016-11-05,-0.29, -5.40, -17.54, 1.55, 1.70, 7.23, repro,
2016-11-06,2.32, -5.87, -12.74, 1.59, 1.75, 7.39, repro,
2016-11-07,3.19, -5.97, -11.74, 1.56, 1.71, 7.23, repro,
2016-11-08,3.08, -3.90, -10.98, 1.57, 1.72, 7.32, repro,
2016-11-09,3.44, -4.22, -10.99, 1.58, 1.72, 7.35, repro,
2016-11-10,2.49, -4.44, -19.90, 1.58, 1.70, 7.48, repro,
2016-11-11,2.24, -5.84, -6.84, 1.55, 1.70, 7.25, repro,
2016-11-12,2.95, -3.88, -17.46, 1.57, 1.73, 7.31, repro,
2016-11-13,3.77, -5.22, -18.77, 1.55, 1.70, 7.20, repro,
2016-11-14,2.09, -5.41, -10.80, 1.56, 1.72, 7.32, repro,
2016-11-15,2.54, -6.25, -8.50, 1.56, 1.70, 7.24, repro,
2016-11-16,2.43, -5.72, -7.12, 1.66, 1.81, 7.89, repro,
2016-11-17,1.35, -4.99, -6.87, 1.57, 1.76, 7.41, repro,
2016-11-18,2.15, -4.08, -16.76, 1.55, 1.72, 7.24, repro,
2016-11-19,2.79, -1.48, -16.45, 1.61, 1.81, 7.76, repro,
2016-11-20,3.04, -3.95, -13.20, 1.56, 1.72, 7.28, repro,
2016-11-21,3.05, -1.65, -6.31, 1.58, 1.77, 7.43, repro,
2016-11-22,2.29, -4.27, -5.67, 1.54, 1.71, 7.22, repro,
2016-11-23,3.25, -4.64, -11.40, 1.54, 1.71, 7.22, repro,
2016-11-24,3.32, -4.17, -8.86, 1.56, 1.71, 7.26, repro,
2016-11-25,3.19, -3.55, -6.28, 1.55, 1.72, 7.25, repro,
2016-11-26,3.81, -4.37, -13.84, 1.58, 1.73, 7.35, repro,
2016-11-27,3.42, -4.61, -10.37, 1.57, 1.77, 7.42, repro,
2016-11-28,5.46, -4.40, -2.47, 1.56, 1.76, 7.36, repro,
2016-11-29,4.40, -2.36, 2.31, 1.54, 1.70, 7.21, repro,
2016-11-30,3.33, -4.09, -9.02, 1.55, 1.71, 7.23, repro,
2016-12-01,4.34, -4.12, -3.84, 1.60, 1.79, 7.50, repro,
2016-12-02,1.34, -3.59, -12.60, 1.58, 1.73, 7.37, repro,
2016-12-03,2.86, -3.62, -7.09, 1.55, 1.71, 7.29, repro,
2016-12-04,1.91, -3.97, -4.52, 1.55, 1.71, 7.24, repro,
2016-12-05,1.49, -3.47, -4.94, 1.55, 1.71, 7.26, repro,
2016-12-06,3.18, -3.37, -8.41, 1.71, 1.94, 8.08, repro,
2016-12-07,1.32, -2.12, -3.85, 1.55, 1.71, 7.25, repro,
2016-12-08,2.66, -3.53, -11.78, 1.56, 1.71, 7.29, repro,
2016-12-09,2.33, -3.26, -8.37, 1.59, 1.75, 7.34, repro,
2016-12-10,3.40, -4.52, -12.80, 1.54, 1.71, 7.21, repro,
2016-12-11,3.20, -4.72, -4.42, 1.55, 1.72, 7.28, repro,
2016-12-12,3.80, -3.35, -10.88, 1.56, 1.73, 7.33, repro,
2016-12-13,2.85, -3.55, -9.87, 1.58, 1.75, 7.41, repro,
2016-12-14,2.08, -4.21, -10.78, 1.59, 1.76, 7.45, repro,
2016-12-15,2.89, -4.53, -6.70, 1.55, 1.70, 7.23, repro,
2016-12-16,3.30, -4.45, -10.09, 1.56, 1.71, 7.27, repro,
2016-12-17,4.15, -3.23, -6.49, 1.58, 1.77, 7.45, repro,
2016-12-18,2.97, -4.42, -2.01, 1.57, 1.72, 7.32, repro,
2016-12-19,5.00, -4.79, -11.94, 1.57, 1.76, 7.41, repro,
2016-12-20,4.18, -4.05, -10.29, 1.55, 1.70, 7.23, repro,
2016-12-21,5.59, -5.06, -5.95, 1.55, 1.70, 7.20, repro,
2016-12-22,5.13, -3.96, -10.00, 1.56, 1.71, 7.25, repro,
2016-12-23,5.73, -3.55, -8.75, 1.58, 1.77, 7.47, repro,
2016-12-24,4.37, -2.87, -3.92, 1.58, 1.75, 7.41, repro,
2016-12-25,4.43, -2.52, -4.22, 1.55, 1.70, 7.20, repro,
2016-12-26,4.23, -4.21, -9.66, 1.55, 1.70, 7.20, repro,
2016-12-27,5.17, -4.38, -1.82, 1.55, 1.71, 7.22, repro,
2016-12-28,5.64, -4.83, 4.55, 1.60, 1.78, 7.41, repro,
2016-12-29,4.24, -2.89, -9.40, 1.56, 1.72, 7.31, repro,
2016-12-30,4.99, -3.29, -10.92, 1.57, 1.72, 7.36, repro,
2016-12-31,3.90, -4.41, -0.33, 1.55, 1.70, 7.22, repro,
2017-01-01,3.57, -2.53, -2.09, 1.55, 1.70, 7.22, repro,
2017-01-02,2.77, -2.35, -3.20, 1.55, 1.71, 7.26, repro,
2017-01-03,4.07, -3.31, 3.23, 1.56, 1.72, 7.34, repro,
2017-01-04,3.15, -2.38, -4.50, 1.56, 1.72, 7.33, repro,
2017-01-05,3.61, -3.62, -6.19, 1.56, 1.71, 7.27, repro,
2017-01-06,2.57, -4.04, -9.36, 1.55, 1.70, 7.19, repro,
2017-01-07,3.21, -2.14, -10.94, 1.54, 1.71, 7.23, repro,
2017-01-08,3.28, -2.08, -4.88, 1.55, 1.72, 7.26, repro,
2017-01-09,5.47, -2.53, -3.37, 1.56, 1.73, 7.35, repro,
2017-01-10,5.15, -3.30, -4.79, 1.61, 1.78, 7.49, repro,
2017-01-11,5.66, -4.45, -18.35, 1.66, 1.90, 7.95, repro,
2017-01-12,3.98, -1.40, -8.62, 1.54, 1.71, 7.21, repro,
2017-01-13,3.86, -3.74, -7.44, 1.57, 1.76, 7.38, repro,
2017-01-14,7.05, -2.70, -7.21, 1.65, 1.91, 7.92, repro,
2017-01-15,3.33, -3.79, -15.55, 1.62, 1.82, 7.90, repro,
2017-01-16,4.06, -2.59, -5.47, 1.56, 1.72, 7.31, repro,
2017-01-17,3.76, -3.97, -5.25, 1.62, 1.77, 7.60, repro,
2017-01-18,5.24, -5.25, -1.95, 1.71, 1.95, 8.17, repro,
2017-01-19,4.45, -6.25, -4.16, 1.62, 1.77, 7.74, repro,
2017-01-20,4.48, -2.75, 0.95, 1.74, 1.99, 8.03, repro,
2017-01-21,4.33, -2.41, -1.28, 1.57, 1.71, 7.31, repro,
2017-01-22,3.78, -1.43, -5.44, 1.56, 1.71, 7.29, repro,
2017-01-23,5.21, -3.15, -7.05, 1.56, 1.71, 7.26, repro,
2017-01-24,5.27, -2.11, 4.58, 1.57, 1.72, 7.31, repro,
2017-01-25,5.26, -3.50, -5.07, 1.57, 1.71, 7.25, repro,
2017-01-26,3.66, -2.85, 1.18, 1.56, 1.72, 7.26, repro,
2017-01-27,3.56, -2.53, -13.66, 1.56, 1.71, 7.27, repro,
2017-01-28,4.63, -3.47, -8.74, 1.56, 1.71, 7.27, repro,
2017-01-29,3.56, -3.90, -8.28, 1.56, 1.72, 7.26, repro,
2017-01-30,4.98, -2.94, -2.96, 1.55, 1.72, 7.26, repro,
2017-01-31,4.09, -0.80, -13.26, 1.58, 1.76, 7.57, repro,
2017-02-01,4.59, -2.95, -5.27, 1.67, 1.82, 8.14, repro,
2017-02-02,3.56, -1.09, -7.99, 1.62, 1.79, 7.55, repro,
2017-02-03,4.78, -2.04, -7.23, 1.56, 1.71, 7.25, repro,
2017-02-04,3.93, -1.88, -0.47, 1.55, 1.72, 7.25, repro,
2017-02-05,4.11, -4.90, -4.25, 1.55, 1.72, 7.20, repro,
2017-02-06,4.81, -2.86, -10.04, 1.56, 1.73, 7.29, repro,
2017-02-07,3.41, -5.24, -5.05, 1.58, 1.74, 7.38, repro,
2017-02-08,5.63, -4.59, -13.66, 1.56, 1.72, 7.29, repro,